Weather in Monasturiska

Ukraine / Ternopil District     49˚05′18″N   25˚10′13″E
temp.,
°C
wind,
m/s
gust,
m/s
humid.,
%
clouds,
%
prec.,
mm/h
press.,
hPa
HPBL,
m
16 january, sat
sat1623:00−10˚w41192100 0.0 1017336
02:00−9˚w41192100 0.1 1017443
05:00−10˚nw61188100 0.2 1017565
08:00−13˚nw51093100 0.2 1019516
11:00−12˚wnw588798 0.0 1019727
14:00−10˚wnw588399 0.1 1018795
17:00−12˚nw369292 0.0 1018175
20:00−12˚w239263 0.0 101873
17 january, sun
sun1723:00−11˚ssw2491100 0.0 1018103
02:00−11˚ssw238797 0.0 101645
05:00−12˚wsw128422 0.0 101626
08:00−11˚wsw117940 0.0 101621
11:00−8˚w248098 0.0 1017234
14:00−6˚wnw368399 0.1 1017506
17:00−7˚nw4892100 0.0 1018311
20:00−9˚nw5992100 0.1 1020479
18 january, mon
mon1823:00−10˚nw5993100 0.1 1021484
02:00−11˚nw51091100 0.1 1021536
05:00−12˚nw51092100 0.1 1022569
08:00−13˚nw51093100 0.1 1023527
11:00−12˚nw5989100 0.1 1024550
14:00−11˚nw5887100 0.1 1023554
17:00−13˚nw359394 0.0 1024145
20:00−14˚wnw349563 0.0 102595
19 january, tue
tue1923:00−15˚wnw239442 0.0 102584
02:00−15˚w129534 0.0 102542
05:00−13˚sw129190 0.0 102444
08:00−12˚s238494 0.0 102460
11:00−8˚ssw247989 0.0 1023172
14:00−6˚sw359193 0.3 1021267
17:00−6˚ssw228592 0.1 102021
20:00−6˚ssw238296 0.1 102132
20 january, wed
wed2023:00−6˚s2380100 0.0 102031
02:00−5˚sse3380100 0.0 101962
05:00−4˚sse3480100 0.0 101873
08:00−4˚se2282100 0.0 101832
11:00−2˚s3586100 0.0 1018199
14:00s358397 0.0 1017200
17:00−2˚sse348241 0.0 101842
20:00−2˚s348362 0.0 101854